TimeEDT,TemperatureF,Dew PointF,Humidity,Sea Level PressureIn,VisibilityMPH,Wind Direction,Wind SpeedMPH,Gust SpeedMPH,PrecipitationIn,Events,Conditions,WindDirDegrees,DateUTC
12:58 AM,29.1,23.2,78,30.32,10.0,NW,4.6,-,N/A,,Clear,310,2013-03-27 04:58:00
1:58 AM,29.1,23.2,78,30.34,10.0,NNW,4.6,-,N/A,,Partly Cloudy,330,2013-03-27 05:58:00
2:08 AM,32.0,24.8,75,30.32,10.0,NW,4.6,-,N/A,,Mostly Cloudy,320,2013-03-27 06:08:00
2:13 AM,32.0,24.8,75,30.32,10.0,NW,5.8,-,N/A,,Scattered Clouds,320,2013-03-27 06:13:00
2:58 AM,29.7,23.2,77,30.34,10.0,WNW,5.8,-,N/A,,Clear,300,2013-03-27 06:58:00
3:58 AM,29.1,23.4,79,30.32,10.0,Calm,Calm,-,N/A,,Clear,0,2013-03-27 07:58:00
4:58 AM,27.5,24.1,87,30.32,10.0,SE,2.3,-,N/A,,Clear,130,2013-03-27 08:58:00
5:58 AM,26.6,24.1,90,30.34,10.0,Calm,Calm,-,N/A,,Clear,0,2013-03-27 09:58:00
6:58 AM,26.1,24.4,94,30.36,10.0,Calm,Calm,-,N/A,,Clear,0,2013-03-27 10:58:00
7:58 AM,26.4,23.4,88,30.38,10.0,WNW,1.2,-,N/A,,Clear,300,2013-03-27 11:58:00
8:58 AM,33.6,27.0,77,30.40,10.0,NNW,2.3,-,N/A,,Clear,330,2013-03-27 12:58:00
9:58 AM,40.8,25.5,55,30.40,10.0,NNW,11.5,-,N/A,,Clear,340,2013-03-27 13:58:00
10:58 AM,45.1,22.8,41,30.40,10.0,North,10.4,18.4,N/A,,Clear,360,2013-03-27 14:58:00
11:58 AM,48.0,22.5,37,30.38,10.0,North,12.7,16.1,N/A,,Clear,350,2013-03-27 15:58:00
12:58 PM,49.8,22.3,34,30.38,10.0,Variable,2.3,-,N/A,,Clear,0,2013-03-27 16:58:00
1:58 PM,55.0,23.7,30,30.35,10.0,North,9.2,17.3,N/A,,Clear,360,2013-03-27 17:58:00
2:58 PM,56.8,23.7,28,30.32,10.0,North,5.8,-,N/A,,Clear,360,2013-03-27 18:58:00
3:58 PM,58.5,23.9,26,30.30,10.0,Variable,6.9,-,N/A,,Clear,0,2013-03-27 19:58:00
4:34 PM,60.8,24.8,25,30.27,10.0,NW,11.5,19.6,N/A,,Clear,310,2013-03-27 20:34:00
4:58 PM,59.7,24.1,26,30.27,10.0,WNW,6.9,-,N/A,,Clear,300,2013-03-27 20:58:00
5:58 PM,60.3,23.4,24,30.26,10.0,WNW,11.5,-,N/A,,Clear,290,2013-03-27 21:58:00
6:58 PM,59.4,24.1,26,30.25,10.0,WNW,9.2,-,N/A,,Clear,300,2013-03-27 22:58:00
7:58 PM,54.1,24.8,32,30.27,10.0,West,4.6,-,N/A,,Clear,270,2013-03-27 23:58:00
8:58 PM,48.2,28.4,46,30.28,10.0,West,2.3,-,N/A,,Clear,270,2013-03-28 00:58:00
9:58 PM,43.7,29.7,58,30.30,10.0,Calm,Calm,-,N/A,,Clear,30,2013-03-28 01:58:00
10:58 PM,41.4,29.1,62,30.30,10.0,SE,2.3,-,N/A,,Clear,130,2013-03-28 02:58:00
11:58 PM,38.5,30.0,72,30.31,10.0,ESE,1.2,-,N/A,,Clear,120,2013-03-28 03:58:00